India Forums Logo

Hum ne li hai... Shapath

India Forums > Forum Index > Hum ne li hai... Shapath
Hum ne li hai... Shapath is a story of tough cops against the flawed system with thrilling and contemporary police cases weaved in.
...
<< | 3 | 4 | 5 | 6 | 7 | 8 | 9 | 10 | 11 | 12 | 13 | 14 | 15 | 16 | 17 | >>
TIDTopic SubjectStart DateLast Entry
3323100Sukirti Kandpal,Padam Singh,Kiran Janjani in HNLHS12/2/2012 4:39:47 AM12/2/2012 9:39:38 PM
3323651FF : Enemy turns Love, Friend turns Enemy12/2/2012 11:19:22 AM12/2/2012 11:22:46 AM
3323860Scenes to Remember12/2/2012 3:18:01 PM1/16/2013 11:28:16 AM
3329483~*Secret Santa - Gift Exchange Sign Up*~12/5/2012 1:19:01 PM12/5/2012 1:19:01 PM
3331443Tabrez Khan in Hum Ne Li Hai Shapath12/6/2012 1:32:30 PM12/8/2012 11:31:00 AM
3334863GOTW: Dedicate a Song (Game Closed)12/8/2012 9:37:49 PM12/14/2012 7:14:44 PM
3339545Aparna Kumar in Hum Ne Li Hai Shapath12/11/2012 4:56:55 PM12/12/2012 2:33:09 PM
3343665TB:Prinal to be seen in Hum Ne Li Hai...Shapath12/14/2012 4:09:24 AM12/14/2012 8:22:20 AM
3343666Prinal to be seen in Hum Ne Li Hai...Shapath12/14/2012 4:09:36 AM12/14/2012 8:21:16 AM
3344814GOTW: The Wish List (Closed)12/14/2012 7:14:05 PM12/22/2012 2:07:38 PM
3345391Milind Gunaji ???12/15/2012 5:16:46 AM12/15/2012 10:29:00 AM
3346453Raymon Singh in Shapath12/16/2012 5:20:30 AM12/17/2012 2:10:02 AM
3346838No Telecast on 16th December12/16/2012 11:12:43 AM12/17/2012 6:50:04 PM
3351544TOI: Vijay Badlani in Shapath!12/19/2012 9:35:20 AM12/22/2012 12:21:54 AM
3351607TB: Life OK Turns a Year Old12/19/2012 9:53:38 AM12/22/2012 12:18:59 AM
3352039vote for victim girl it is request12/19/2012 2:58:44 PM12/22/2012 12:20:13 AM
3356903GOTW: Antakshari (Closed)12/22/2012 2:06:53 PM1/18/2013 1:16:47 PM
3361597Abhigyan12/25/2012 10:01:15 PM12/26/2012 2:32:45 PM
3365108Jatin Shah in Hum Ne Li Hai ... Shapath12/27/2012 6:30:45 PM1/4/2013 5:09:51 PM
3369897|~The Stylish And Unbeatable Inspector Abhigyan~|12/31/2012 2:54:26 AM5/30/2013 4:11:10 PM
3371100HAPPY NEW YEAR!!!!12/31/2012 3:47:13 PM12/31/2012 3:47:13 PM
3378813Kashish as a New Inspector1/5/2013 10:04:10 AM1/15/2013 10:48:55 AM
3378892Sudeep Sarangi and Rushad Rana for 2 episodes1/5/2013 10:44:22 AM1/5/2013 10:44:22 AM
3381986*~*HNLHS Banner Contest*~* (Done)1/7/2013 6:02:39 PM2/2/2013 8:47:32 AM
3383937inspector gautam1/9/2013 1:18:10 AM1/9/2013 7:29:13 AM
3385481Removed to: http://www.india-forums.com/forum_posts.asp?TID=38327881/9/2013 9:40:21 PM12/17/2013 9:59:57 AM
3386206Dakssh Ajit Singh to make an exit from HNLHS1/10/2013 7:56:00 AM1/27/2013 4:03:17 AM
3392324Ali Mercchant and Puneet Vashisht in HNLHS1/14/2013 10:42:13 AM1/14/2013 10:42:13 AM
3393044Simran Sachdev aka Sub-Inspector Damini quits!1/15/2013 1:51:32 AM1/27/2013 3:57:40 AM
3393741HNLHS Completes One YEAR!!!1/15/2013 10:00:52 AM1/21/2013 6:30:04 AM
3394077LRTD (need suggestion)1/15/2013 12:18:12 PM1/24/2013 3:57:41 AM
3396477TVT Update (Updated pg 5)1/17/2013 7:37:25 AM1/24/2014 7:32:31 AM
3398423HNLHS to go through a relaunch in February1/18/2013 12:39:37 PM1/19/2013 12:28:33 PM
3398822Ali Merchant to play double roles in Shapath1/19/2013 12:51:59 AM1/19/2013 12:29:29 PM
3399707GOTW: Rapid Fire (Closed)1/19/2013 2:39:31 PM1/26/2013 4:07:38 PM
3400135Inspector Kashish1/20/2013 4:53:47 AM1/21/2013 6:31:51 AM
340059420/01/13 WU: The Attack on Abhigyan1/20/2013 11:21:58 AM1/24/2013 10:56:40 AM
3404755ONE VOTE means YOUR SUPPORT towards FEMALE CHILD!1/23/2013 7:46:34 AM1/23/2013 7:46:34 AM
3406567!!!Happy Birthday Renu!!!1/24/2013 10:00:05 AM1/31/2013 7:07:20 AM
3406983Imran Khan plays news baron in episodic1/24/2013 4:33:35 PM1/26/2013 8:58:11 AM
340963426/01/2013 WU: Samrat Dies :(((1/26/2013 2:16:34 PM1/28/2013 8:59:24 PM
3409674GOTW: Instant Reaction (Closed)1/26/2013 4:05:45 PM2/3/2013 1:22:33 PM
3409727OS: Hamari Adhuri Kahani1/26/2013 7:21:10 PM2/21/2013 10:46:14 AM
3410138RS- When Kapil Nirmal was mistaken for Aamir Dalvi1/27/2013 4:39:16 AM1/28/2013 8:51:21 AM
3410448No Episode Today1/27/2013 10:05:04 AM1/27/2013 10:10:41 PM
3410742TOI: Manoj Bajpayee on Hum Ne Li Hai.. Shapath1/27/2013 7:47:50 PM1/27/2013 7:48:43 PM
3412044Manoj Bajpayee on TV and on HNLHS1/28/2013 1:32:28 PM1/28/2013 1:32:28 PM
3413725Manoj Bajpai solves a jewellery heist with cops1/29/2013 2:08:13 PM1/30/2013 12:20:26 PM
3413818I've great respect for TV actors, technicians1/29/2013 6:12:14 PM1/29/2013 6:12:14 PM
3417184HT: Manoj Bajpayee returns to TV1/31/2013 8:36:24 PM1/31/2013 8:36:24 PM
3417186HT: I've great respect for TV actors, technicians1/31/2013 8:37:39 PM1/31/2013 8:37:39 PM
3419803||HNLHS Banner Contest Voting|| (Closed)2/2/2013 8:26:21 PM2/17/2013 1:38:24 PM
34198202/2/13 WU: Anuj and Ajay: The Twins2/2/2013 9:10:08 PM2/3/2013 10:29:31 PM
3420448Daksh Ajit Singh to enter Kuch Toh Log Kahenge2/3/2013 9:38:13 AM2/3/2013 9:38:13 AM
34205943/2/13 WU: Special Chabbis Promotion2/3/2013 11:30:32 AM2/3/2013 11:47:24 PM
3420597Next Week's Promo2/3/2013 11:32:07 AM2/8/2013 12:23:01 PM
3420657GOTW: The Story Game (Closed)2/3/2013 1:21:47 PM2/9/2013 12:45:31 PM
3420737The Changes a Name Change Could Bring2/3/2013 5:41:42 PM2/12/2013 2:08:26 PM
3424623A video On Shapath Team2/5/2013 10:21:17 PM2/7/2013 8:14:13 AM
3425724TOI: Itishree Singh in Hum Ne Li HaiShapath2/6/2013 10:53:56 AM2/6/2013 10:34:09 PM
3426970Sarwar Ahuja turns into an invisible man2/7/2013 7:24:49 AM2/16/2013 7:19:57 PM
3428341Kunal Pant and Aparna Kumar in HNLHS2/8/2013 4:01:09 AM2/8/2013 11:46:48 PM
343023709/02/2013 WU: Nature's Revenge and TRP Race2/9/2013 11:03:14 AM2/10/2013 1:46:07 AM
3430354GOTW: Make a Word (Close)2/9/2013 12:47:14 PM2/23/2013 11:08:19 AM
3430369The tapori inspector is so annoying.2/9/2013 1:18:16 PM2/11/2013 4:37:01 AM
343142110/02/2013 WU: Mr. India Ka Revenge (LOL)2/10/2013 12:16:21 PM2/14/2013 10:04:38 AM
3433066Cast of Saheb Biwi Aur Gangster Returns to shoot2/11/2013 2:59:15 PM2/13/2013 9:28:37 AM
3433514Madhura Naik back in TV after IPKKND and HNLHS2/12/2013 1:24:14 AM2/12/2013 7:38:35 PM
3435943TV celebs to perform at a cricket event in Kenya2/13/2013 10:27:44 AM2/24/2013 11:06:45 PM
3436403what happened to shaurya2/13/2013 5:11:16 PM2/15/2013 4:50:05 AM
3437017Madhura Naik wants to get married2/14/2013 2:10:28 AM2/14/2013 1:47:42 PM
3440384I was phobic to heights' - Piyush Sahdev2/16/2013 5:17:39 AM2/24/2013 11:04:59 PM
344091116/02/2013 WU: Shaurya Invisible, Abhigyan Blamed2/16/2013 1:40:22 PM2/17/2013 1:52:29 AM
344189417/02/2013 WU: The Forced Orphanage2/17/2013 11:08:52 AM2/19/2013 4:44:25 AM
3443604Amit Pachori joins the cast of HNLHS2/18/2013 10:27:53 AM2/19/2013 8:16:20 PM
<< | 3 | 4 | 5 | 6 | 7 | 8 | 9 | 10 | 11 | 12 | 13 | 14 | 15 | 16 | 17 | >>